This demonstration page uses our WeatherBlox Daily Observations layout. Learn more.

Left ArrowRight Arrow

39.01783, -85.05884

Hourly Observations for November 29, 2018

Temp ( °F °C ) Dew Point ( °F °C ) Humidity (%) Winds ( mph kmh ) Pressure ( in mb ) Visibility ( mi km ) Precip ( " mm )
12:52 am 00:52 Cloudy 29 -1.7 22 -5.6 75 75 S 6 9 30.09 1019 10 16 0.00 0.00
1:52 am 01:52 Cloudy 29 -1.7 21 -6.1 72 72 S 7 11 30.10 1019 10 16 0.00 0.00
2:52 am 02:52 Cloudy 28 -2.2 23 -5 81 81 SSE 6 9 30.09 1019 10 16 0.00 0.00
3:52 am 03:52 Cloudy 29 -1.7 22 -5.6 75 75 SE 9 15 30.08 1019 10 16 0.00 0.00
4:52 am 04:52 Cloudy 29 -1.7 23 -5 78 78 SE 9 15 30.06 1018 10 16 0.00 0.00
5:52 am 05:52 Cloudy 29 -1.7 22 -5.6 75 75 SE 10 17 30.05 1018 10 16 0.00 0.00
6:52 am 06:52 Cloudy with Light Rain 29 -1.7 23 -5 78 78 SE 12 19 30.05 1018 10 16 0.00 0.03
7:02 am 07:02 Cloudy 29 -1.7 23 -5 78 78 SE 10 17 30.09 1019 8 13 0.00 0.00
7:09 am 07:09 Cloudy 29 -1.7 23 -5 78 78 SE 12 19 30.09 1019 5 8 0.00 0.00
7:23 am 07:23 Cloudy 29 -1.7 24 -4.4 82 82 SE 13 20 30.09 1019 9 14 0.00 0.00
7:29 am 07:29 Cloudy with Light Freezing Drizzle 29 -1.7 23 -5 78 78 SE 12 19 30.09 1019 10 16 0.00 0.00
7:33 am 07:33 Cloudy 29 -1.7 23 -5 78 78 SE 13 20 30.09 1019 10 16 0.00 0.00
7:52 am 07:52 Cloudy 29 -1.7 23 -5 78 78 SE 14 22 30.03 1017 10 16 0.00 0.00
8:52 am 08:52 Cloudy 30 -1.1 23 -5 75 75 SE 15 24 30.02 1017 10 16 0.00 0.00
9:23 am 09:23 Cloudy with Light Freezing Drizzle 31 -0.6 24 -4.4 76 76 SE 7 11 30.06 1018 10 16 0.00 0.03
9:35 am 09:35 Cloudy 31 -0.6 24 -4.4 76 76 SE 9 15 30.06 1018 10 16 0.00 0.03
9:44 am 09:44 Cloudy with Light Freezing Drizzle 31 -0.6 24 -4.4 76 76 SSE 10 17 30.06 1018 9 14 0.00 0.03
9:52 am 09:52 Cloudy with Light Freezing Drizzle 31 -0.6 25 -3.9 79 79 SSE 9 15 30.03 1017 5 8 0.00 0.03
9:54 am 09:54 Cloudy with Freezing Drizzle 31 -0.6 26 -3.3 82 82 SE 10 17 30.06 1018 5 8 0.00 0.03
10:07 am 10:07 Cloudy with Light Freezing Drizzle 31 -0.6 26 -3.3 82 82 SE 12 19 30.06 1018 6 10 0.00 0.03
10:52 am 10:52 Cloudy 32 0 27 -2.8 82 82 SE 13 20 30.02 1017 10 16 0.00 0.03
11:52 am 11:52 Cloudy 33 0.6 27 -2.8 78 78 SE 10 17 29.98 1015 10 16 0.00 0.00
12:17 pm 12:17 Cloudy 33 0.6 28 -2.2 82 82 SE 8 13 29.97 1015 10 16 0.00 0.00
12:52 pm 12:52 Cloudy 34 1.1 29 -1.7 82 82 SE 6 9 29.95 1014 10 16 0.00 0.00
1:52 pm 13:52 Cloudy with Drizzle 34 1.1 31 -0.6 89 89 SE 8 13 29.93 1014 3 5 0.00 0.03
2:52 pm 14:52 Cloudy with Mist and Fog 34 1.1 33 0.6 97 97 SE 7 11 29.92 1013 3 5 0.00 0.03
3:06 pm 15:06 Cloudy with Mist and Fog 35 1.7 33 0.6 93 93 SE 7 11 29.94 1014 3 5 0.00 0.00
3:52 pm 15:52 Cloudy with Mist and Fog 36 2.2 35 1.7 97 97 SSE 6 9 29.93 1013 3 5 0.00 0.00
4:52 pm 16:52 Cloudy with Mist and Fog 36 2.2 34 1.1 93 93 SE 6 9 29.93 1014 5 8 0.00 0.00
5:19 pm 17:19 Cloudy with Mist and Fog 36 2.2 34 1.1 93 93 ESE 6 9 29.94 1014 3 5 0.00 0.00
5:52 pm 17:52 Cloudy with Drizzle 36 2.2 35 1.7 97 97 ESE 6 9 29.93 1014 2 2 0.00 0.03
6:52 pm 18:52 Cloudy with Mist and Fog 37 2.8 37 2.8 100 100 SE 6 9 29.92 1013 3 5 0.00 0.03
7:03 pm 19:03 Cloudy with Mist and Fog 37 2.8 37 2.8 100 100 ESE 5 7 29.94 1014 4 6 0.00 0.00
7:52 pm 19:52 Cloudy with Mist and Fog 38 3.3 37 2.8 97 97 ESE 6 9 29.93 1014 6 10 0.00 0.00
8:52 pm 20:52 Cloudy 39 3.9 37 2.8 93 93 ESE 6 9 29.91 1013 8 13 0.00 0.00
9:27 pm 21:27 Cloudy 40 4.4 38 3.3 93 93 SSE 3 6 29.94 1014 7 11 0.00 0.00
9:52 pm 21:52 Cloudy 40 4.4 38 3.3 93 93 Calm 29.93 1014 7 11 0.00 0.00
10:52 pm 22:52 Cloudy with Mist and Fog 42 5.6 39 3.9 89 89 Calm 29.93 1014 6 10 0.00 0.00
11:39 pm 23:39 Cloudy with Mist and Fog 41 5 40 4.4 96 96 Calm 29.94 1014 6 10 0.00 0.00
11:52 pm 23:52 Cloudy with Light Rain 42 5.6 40 4.4 92 92 E 3 6 29.92 1013 4 6 0.00 0.03

Powered by AerisWeather